GW1395 Weather Reports


time (UTC)temp
C
wind
direction
speed
KPH
gust
KPH
rain 1hr
cm
rain 24hr
cm
rain mn
cm
humidity
%
barometer
mb
20260506020017 10 342 0.0 3.2 0.00 0.03 0.03 60 1013.5
20260506014518 10 360 0.0 4.8 0.00 0.03 0.03 59 1013.4
20260506013026 10 321 1.6 8.0 0.00 0.03 0.03 59 1013.3
20260506011527 11 339 3.2 14.5 0.00 0.03 0.03 55 1013.3
20260506010038 11 327 6.4 16.1 0.00 0.03 0.03 53 1013.4
20260506004521 11 238 1.6 8.0 0.00 0.03 0.03 54 1013.1
20260506003023 12 319 1.6 8.0 0.00 0.03 0.03 53 1013.1
20260506001524 12 200 1.6 12.9 0.00 0.03 0.03 53 1013.0
20260506000026 13 287 3.2 12.9 0.00 0.03 0.03 49 1012.9
20260505234515 13 323 4.8 14.5 0.00 0.03 0.03 47 1013.0
20260505233022 14 340 4.8 16.1 0.00 0.03 0.03 46 1012.9
20260505231523 13 352 8.0 17.7 0.00 0.03 0.03 48 1013.0
20260505230037 13 209 3.2 6.4 0.00 0.03 0.03 54 1013.0
20260505224512 12 270 0.0 9.7 0.00 0.03 0.03 57 1013.1
20260505223018 11 315 3.2 14.5 0.00 0.03 0.03 66 1013.6
20260505221524 11 11 8.0 24.1 0.00 0.03 0.03 61 1013.8
20260505220028 11 360 8.0 19.3 0.00 0.03 0.03 57 1013.8
20260505214526 13 309 8.0 16.1 0.00 0.03 0.03 53 1013.6
20260505213024 14 14 8.0 14.5 0.00 0.03 0.03 51 1013.5
20260505211504 15 258 4.8 19.3 0.00 0.03 0.03 50 1013.6
20260505210007 15 318 6.4 17.7 0.00 0.03 0.03 51 1013.6
20260505204509 13 337 4.8 17.7 0.00 0.03 0.03 55 1013.7
20260505203025 13 333 3.2 16.1 0.00 0.03 0.03 56 1013.9
20260505201519 13 320 11.3 20.9 0.00 0.03 0.03 56 1014.0
20260505200006 13 238 8.0 20.9 0.03 0.03 0.03 57 1014.1
20260505194508 12 246 8.0 19.3 0.03 0.03 0.03 61 1013.9
20260505193012 11 238 4.8 12.9 0.03 0.03 0.03 68 1014.3
20260505191519 10 215 3.2 14.5 0.03 0.03 0.03 82 1014.5
20260505190032 11 136 3.2 17.7 0.00 0.00 0.00 70 1014.6
20260505184508 13 242 6.4 14.5 0.00 0.00 0.00 53 1014.6
20260505183009 14 302 6.4 17.7 0.00 0.00 0.00 49 1014.2
20260505181515 14 223 6.4 17.7 0.00 0.00 0.00 50 1014.4
20260505180022 13 207 4.8 16.1 0.00 0.00 0.00 52 1014.4
20260505174524 13 278 4.8 14.5 0.00 0.00 0.00 49 1014.5
20260505173009 12 221 3.2 8.0 0.00 0.00 0.00 53 1014.7
20260505171519 12 343 4.8 6.4 0.00 0.00 0.00 52 1015.1
20260505170020 11 50 0.0 8.0 0.00 0.00 0.00 53 1015.0
20260505164521 11 344 1.6 6.4 0.00 0.00 0.00 55 1015.0
20260505163010 10 332 1.6 6.4 0.00 0.00 0.00 58 1015.1
20260505161510 10 47 0.0 8.0 0.00 0.00 0.00 57 1015.4
20260505153026 10 344 3.2 9.7 0.00 0.00 0.00 56 1015.5
20260505151509 10 338 1.6 9.7 0.00 0.00 0.00 57 1015.5
20260505124516 10 333 1.6 4.8 0.00 0.00 0.00 50 1015.3
20260505123020 10 331 1.6 6.4 0.00 0.00 0.00 48 1015.4
20260505121529 10 344 1.6 4.8 0.00 0.00 0.00 45 1015.4
20260505120053 10 352 1.6 3.2 0.00 0.00 0.00 44 1015.1
20260505114528 10 284 0.0 3.2 0.00 0.00 0.00 43 1015.0
20260505113018 10 340 0.0 3.2 0.00 0.00 0.00 41 1015.1
20260505111525 10 339 1.6 4.8 0.00 0.00 0.00 40 1015.2
20260505101523 11 339 1.6 4.8 0.00 0.00 0.00 34 1014.9
20260505100027 11 344 8.0 16.1 0.00 0.00 0.00 33 1014.9
20260505094526 11 342 1.6 8.0 0.00 0.00 0.00 31 1014.4
20260505093016 11 345 3.2 4.8 0.00 0.00 0.00 36 1014.3
20260505091525 12 325 3.2 9.7 0.00 0.00 0.00 37 1014.5
20260505090037 12 346 4.8 16.1 0.00 0.00 0.00 37 1015.0
20260505084507 12 338 4.8 20.9 0.00 0.00 0.00 37 1015.1
20260505083011 12 302 1.6 14.5 0.00 0.00 0.00 38 1015.2
20260505081518 12 342 3.2 11.3 0.00 0.00 0.00 37 1015.5
20260505080023 13 325 3.2 16.1 0.00 0.00 0.00 36 1015.7
20260505074524 13 330 6.4 12.9 0.00 0.00 0.00 35 1015.5
20260505073024 13 317 9.7 16.1 0.00 0.00 0.00 34 1015.5
20260505071518 13 291 3.2 6.4 0.00 0.00 0.00 34 1015.7
20260505070023 13 267 0.0 11.3 0.00 0.00 0.00 33 1015.6
20260505064536 13 329 6.4 11.3 0.00 0.00 0.00 32 1015.3
20260505063006 14 342 1.6 6.4 0.00 0.00 0.00 32 1015.4
20260505061544 14 119 1.6 14.5 0.00 0.00 0.00 30 1015.6
20260505060019 15 264 1.6 14.5 0.00 0.00 0.00 30 1015.3
20260505054530 15 294 4.8 12.9 0.00 0.00 0.00 29 1015.2
20260505053031 15 243 3.2 19.3 0.00 0.00 0.00 28 1015.1
20260505051508 15 13 8.0 22.5 0.00 0.00 0.00 28 1014.9
20260505041526 16 360 8.0 17.7 0.00 0.00 0.00 28 1014.9
20260505040011 16 346 6.4 20.9 0.00 0.00 0.00 28 1015.1
20260505034519 16 333 4.8 22.5 0.00 0.00 0.00 27 1015.0
20260505033023 16 298 9.7 22.5 0.00 0.00 0.00 27 1014.9
20260505031540 17 300 6.4 20.9 0.00 0.00 0.00 26 1014.7
20260505030028 17 349 9.7 24.1 0.00 0.00 0.00 25 1014.5
20260505024530 17 338 8.0 30.6 0.00 0.00 0.00 24 1014.3
20260505023017 17 344 6.4 24.1 0.00 0.00 0.00 24 1014.3
20260505021527 17 276 3.2 17.7 0.00 0.00 0.00 24 1014.2